Weather in Togliatti

Russia / Samara Oblast     53˚30′31″N   49˚25′09″E
temp.,
°C
wind,
m/s
gust,
m/s
humid.,
%
clouds,
%
prec.,
mm/h
press.,
hPa
HPBL,
m
2 december, wed
wed201:00−11˚se34860 0.0 1046154
04:00−12˚se23860 0.0 1046132
07:00−12˚se23870 0.0 1045140
10:00−12˚se23850 0.0 1045143
13:00−10˚se23780 0.0 1044245
16:00−12˚se11840 0.0 1044110
19:00−12˚se118526 0.0 1044100
22:00−12˚sse128539 0.0 1044119
3 december, thu
thu301:00−12˚s228592 0.0 1043109
04:00−12˚s228662 0.0 1044103
07:00−13˚s018520 0.0 104392
10:00−12˚sse118342 0.0 1043107
13:00−10˚ssw017927 0.0 1043217
16:00−10˚ssw118318 0.0 104392
19:00−11˚s118448 0.0 104392
22:00−11˚ese118170 0.0 104295
4 december, fri
fri401:00−11˚sse117976 0.0 104383
04:00−11˚sse007774 0.0 104369
07:00−11˚se007740 0.0 104381
10:00−11˚e117639 0.0 1043103
13:00−9˚nw10730 0.0 1043185
16:00−10˚n11810 0.0 1043101
19:00−11˚nne11830 0.0 104391
22:00−11˚e12810 0.0 104489
5 december, sat
sat501:00−11˚se11780 0.0 104475
04:00−11˚wsw01800 0.0 104498
07:00−11˚ene01800 0.0 104495
10:00−11˚ene11790 0.0 104599
13:00−9˚ene11750 0.0 1044165
16:00−10˚ene11810 0.0 104493
19:00−11˚e11810 0.0 104576
22:00−11˚e12800 0.0 104577
6 december, sun
sun601:00−11˚e12789 0.0 104573
04:00−12˚e22764 0.0 104576
07:00−12˚ene227624 0.0 104578
10:00−12˚ene238012 0.0 1046101
13:00−9˚ne23840 0.0 1046182
16:00−10˚ene23900 0.0 1045126
19:00−11˚ene23900 0.0 1045103
22:00−11˚ene23900 0.0 1045120